• In Russia
  • List of Countries
  • For 7 days
  • Water Temperature
  • Weather Map
  • Weather Widgets
  • user-avatar
    Login

    Hourly Weather Satif

    Today, 3 April, Friday

    Time Temperature Precipitation Wind Pressure Humidity
    00:00 +7°C° 0 mm 1 mps 665 mmHg 87%
    01:00 +7°C° 0.1 mm 1 mps 665 mmHg 88%
    02:00 +7°C° 0.1 mm 1 mps 664 mmHg 89%
    03:00 +6°C° 0.1 mm 1 mps 664 mmHg 89%
    04:00 +6°C° 0.2 mm 1 mps 664 mmHg 89%
    05:00 +7°C° 0.2 mm 1 mps 664 mmHg 89%
    06:00 +7°C° 0.2 mm 1 mps 664 mmHg 88%
    07:00 +7°C° 0.5 mm 2 mps 665 mmHg 80%
    08:00 +8°C° 0.5 mm 2 mps 665 mmHg 71%
    09:00 +9°C° 0.5 mm 3 mps 666 mmHg 63%
    10:00 +10°C° 0.4 mm 3 mps 666 mmHg 62%
    11:00 +11°C° 0.4 mm 4 mps 666 mmHg 60%
    12:00 +11°C° 0.4 mm 4 mps 666 mmHg 59%
    13:00 +10°C° 0.4 mm 5 mps 666 mmHg 60%
    14:00 +10°C° 0.4 mm 6 mps 666 mmHg 61%
    15:00 +10°C° 0.4 mm 6 mps 666 mmHg 63%
    16:00 +9°C° 0.1 mm 6 mps 666 mmHg 69%
    17:00 +8°C° 0.1 mm 5 mps 667 mmHg 74%
    18:00 +6°C° 0.1 mm 4 mps 667 mmHg 80%
    19:00 +6°C° 0.1 mm 4 mps 668 mmHg 83%
    20:00 +6°C° 0.1 mm 4 mps 668 mmHg 87%
    21:00 +5°C° 0.1 mm 4 mps 669 mmHg 91%
    22:00 +5°C° 0.1 mm 3 mps 669 mmHg 90%
    23:00 +5°C° 0.1 mm 3 mps 670 mmHg 90%

    Tomorrow, 4 April, Saturday

    Time Temperature Precipitation Wind Pressure Humidity
    00:00 +5°C° 0.1 mm 3 mps 670 mmHg 90%
    01:00 +5°C° 0.1 mm 3 mps 670 mmHg 91%
    02:00 +4°C° 0.1 mm 3 mps 670 mmHg 92%
    03:00 +4°C° 0.1 mm 3 mps 670 mmHg 92%
    04:00 +3°C° 0 mm 3 mps 670 mmHg 92%
    05:00 +4°C° 0 mm 2 mps 670 mmHg 92%
    06:00 +4°C° 0 mm 2 mps 671 mmHg 93%
    07:00 +5°C° 0 mm 2 mps 671 mmHg 84%
    08:00 +6°C° 0 mm 2 mps 672 mmHg 76%
    09:00 +7°C° 0 mm 2 mps 672 mmHg 67%
    10:00 +8°C° 0 mm 2 mps 673 mmHg 62%
    11:00 +9°C° 0 mm 2 mps 673 mmHg 57%
    12:00 +10°C° 0 mm 2 mps 673 mmHg 51%
    13:00 +12°C° 0 mm 2 mps 673 mmHg 50%
    14:00 +12°C° 0 mm 2 mps 673 mmHg 49%
    15:00 +13°C° 0 mm 2 mps 672 mmHg 48%
    16:00 +12°C° 0 mm 2 mps 672 mmHg 55%
    17:00 +10°C° 0 mm 2 mps 672 mmHg 62%
    18:00 +9°C° 0 mm 2 mps 672 mmHg 69%
    19:00 +8°C° 0 mm 2 mps 672 mmHg 74%
    20:00 +8°C° 0 mm 1 mps 673 mmHg 79%
    21:00 +7°C° 0 mm 1 mps 673 mmHg 85%
    22:00 +7°C° 0 mm 1 mps 673 mmHg 86%
    23:00 +6°C° 0 mm 1 mps 673 mmHg 87%

    Day after tomorrow, 5 April, Sunday

    Time Temperature Precipitation Wind Pressure Humidity
    00:00 +6°C° 0 mm 1 mps 673 mmHg 88%
    01:00 +6°C° 0 mm 1 mps 672 mmHg 88%
    02:00 +6°C° 0 mm 1 mps 672 mmHg 87%
    03:00 +5°C° 0 mm 1 mps 672 mmHg 86%
    04:00 +6°C° 0 mm 1 mps 672 mmHg 83%
    05:00 +6°C° 0 mm 1 mps 672 mmHg 79%
    06:00 +7°C° 0 mm 1 mps 672 mmHg 76%
    07:00 +9°C° 0 mm 1 mps 673 mmHg 64%
    08:00 +10°C° 0 mm 2 mps 673 mmHg 53%
    09:00 +14°C° 0 mm 2 mps 674 mmHg 42%
    10:00 +15°C° 0 mm 2 mps 674 mmHg 40%
    11:00 +16°C° 0 mm 3 mps 674 mmHg 38%
    12:00 +17°C° 0 mm 3 mps 675 mmHg 36%
    13:00 +17°C° 0 mm 3 mps 674 mmHg 38%
    14:00 +17°C° 0 mm 3 mps 674 mmHg 41%
    15:00 +17°C° 0 mm 4 mps 674 mmHg 43%
    16:00 +16°C° 0 mm 3 mps 674 mmHg 51%
    17:00 +14°C° 0 mm 2 mps 673 mmHg 58%
    18:00 +13°C° 0 mm 1 mps 673 mmHg 65%
    19:00 +12°C° 0 mm 1 mps 673 mmHg 68%
    20:00 +12°C° 0 mm 1 mps 674 mmHg 71%
    21:00 +11°C° 0 mm 1 mps 674 mmHg 74%
    22:00 +11°C° 0 mm 1 mps 674 mmHg 76%
    23:00 +9°C° 0 mm 0 mps 674 mmHg 78%

    6 April, Monday

    Time Temperature Precipitation Wind Pressure Humidity
    00:00 +9°C° 0 mm 0 mps 674 mmHg 79%
    01:00 +8°C° 0 mm 0 mps 673 mmHg 81%
    02:00 +8°C° 0 mm 0 mps 673 mmHg 83%
    03:00 +7°C° 0 mm 0 mps 672 mmHg 85%
    04:00 +7°C° 0 mm 0 mps 673 mmHg 85%
    05:00 +7°C° 0 mm 0 mps 673 mmHg 84%
    06:00 +8°C° 0 mm 0 mps 673 mmHg 84%
    07:00 +10°C° 0 mm 0 mps 674 mmHg 74%
    08:00 +12°C° 0 mm 0 mps 675 mmHg 63%
    09:00 +14°C° 0 mm 1 mps 676 mmHg 53%
    10:00 +16°C° 0 mm 1 mps 676 mmHg 48%
    11:00 +17°C° 0 mm 2 mps 676 mmHg 43%
    12:00 +18°C° 0 mm 2 mps 676 mmHg 39%
    13:00 +18°C° 0 mm 3 mps 676 mmHg 40%
    14:00 +18°C° 0 mm 3 mps 676 mmHg 42%
    15:00 +18°C° 0 mm 4 mps 676 mmHg 43%
    16:00 +16°C° 0 mm 3 mps 676 mmHg 52%
    17:00 +14°C° 0 mm 3 mps 675 mmHg 60%
    18:00 +12°C° 0 mm 3 mps 675 mmHg 69%
    19:00 +12°C° 0 mm 2 mps 675 mmHg 73%
    20:00 +12°C° 0 mm 2 mps 675 mmHg 78%
    21:00 +11°C° 0 mm 1 mps 676 mmHg 82%
    22:00 +11°C° 0 mm 1 mps 676 mmHg 84%
    23:00 +10°C° 0 mm 1 mps 675 mmHg 87%

    7 April, Tuesday

    Time Temperature Precipitation Wind Pressure Humidity
    00:00 +10°C° 0 mm 1 mps 675 mmHg 89%
    01:00 +10°C° 0 mm 1 mps 675 mmHg 90%
    02:00 +9°C° 0 mm 1 mps 675 mmHg 90%
    03:00 +8°C° 0 mm 0 mps 675 mmHg 91%
    04:00 +8°C° 0 mm 0 mps 675 mmHg 90%
    05:00 +9°C° 0 mm 0 mps 675 mmHg 89%
    06:00 +9°C° 0 mm 0 mps 675 mmHg 89%
    07:00 +12°C° 0 mm 1 mps 676 mmHg 79%
    08:00 +13°C° 0 mm 1 mps 677 mmHg 69%
    09:00 +15°C° 0 mm 1 mps 677 mmHg 59%
    10:00 +16°C° 0.3 mm 2 mps 677 mmHg 57%
    11:00 +17°C° 0.3 mm 3 mps 678 mmHg 54%
    12:00 +18°C° 0.3 mm 3 mps 678 mmHg 51%
    13:00 +17°C° 1 mm 3 mps 677 mmHg 55%
    14:00 +16°C° 1 mm 3 mps 677 mmHg 59%
    15:00 +16°C° 1 mm 2 mps 676 mmHg 63%
    16:00 +15°C° 0.9 mm 2 mps 676 mmHg 69%
    17:00 +13°C° 0.9 mm 2 mps 676 mmHg 75%
    18:00 +12°C° 0.9 mm 2 mps 676 mmHg 80%
    19:00 +12°C° 0.2 mm 1 mps 676 mmHg 82%
    20:00 +11°C° 0.2 mm 1 mps 676 mmHg 85%
    21:00 +11°C° 0.2 mm 1 mps 676 mmHg 87%
    22:00 +9°C° 0.1 mm 0 mps 676 mmHg 87%
    23:00 +9°C° 0.1 mm 0 mps 676 mmHg 88%

    8 April, Wednesday

    Time Temperature Precipitation Wind Pressure Humidity
    00:00 +9°C° 0.1 mm 0 mps 676 mmHg 88%
    01:00 +9°C° 0 mm 0 mps 676 mmHg 88%
    02:00 +10°C° 0 mm 1 mps 676 mmHg 87%
    03:00 +10°C° 0 mm 1 mps 676 mmHg 86%
    04:00 +10°C° 0 mm 1 mps 676 mmHg 85%
    05:00 +10°C° 0 mm 1 mps 677 mmHg 84%
    06:00 +11°C° 0 mm 1 mps 677 mmHg 82%
    07:00 +11°C° 0 mm 1 mps 677 mmHg 80%
    08:00 +12°C° 0 mm 2 mps 677 mmHg 78%
    09:00 +12°C° 0 mm 2 mps 678 mmHg 76%
    10:00 +13°C° 0.3 mm 2 mps 678 mmHg 74%
    11:00 +12°C° 0.3 mm 3 mps 678 mmHg 72%
    12:00 +13°C° 0.3 mm 3 mps 678 mmHg 71%
    13:00 +13°C° 0.6 mm 3 mps 678 mmHg 69%
    14:00 +13°C° 0.6 mm 3 mps 678 mmHg 68%
    15:00 +14°C° 0.6 mm 3 mps 677 mmHg 67%
    16:00 +14°C° 0.6 mm 2 mps 677 mmHg 71%
    17:00 +13°C° 0.6 mm 2 mps 677 mmHg 75%
    18:00 +12°C° 0.6 mm 2 mps 677 mmHg 79%
    19:00 +12°C° 0.2 mm 2 mps 677 mmHg 80%
    20:00 +11°C° 0.2 mm 1 mps 677 mmHg 82%
    21:00 +11°C° 0.2 mm 1 mps 677 mmHg 83%
    22:00 +11°C° 0.1 mm 1 mps 677 mmHg 84%
    23:00 +11°C° 0.1 mm 1 mps 677 mmHg 85%
    Show more